Content
SEND FEEDBACK

Daily
Averages
Monthly
Summary
United States of America

GORDON, WISCONSIN


Home > North America > United States > Wisconsin
Elevation: 1066 feet     Latitude: 46 15N     Longitude: 091 48W

WEATHER
 
SELECT A DAY
Number of Records: 212,723;   Date Range: 7/1/96 - 12/17/14
 
SHARE

PRINT THIS DATA

[ ← Previous Day ]
WEATHER ALMANAC - JANUARY 24, 2013
[ Next Day → ]
[ °C ]   °F
Weather ElementAverageHighLow
Temperature0.3 °F57.2 °F (11:47 am)-20 °F (3:53 am)
Dewpoint-7.8 °F46.4 °F (11:47 am)-27 °F (4:53 am)
Humidity69.3 %79 % (9:53 am)52 % (2:53 pm)
Barometer30.50 in30.74 in (6:53 am)30.25 in (11:47 am)
Wind Speed4.8 mph11.5 mph (10:53 pm)
Weather ElementAverage
Visibility7.7 mi
Wind DirectionE (85.7 °)

Weather ElementTotal
Precipitation---
Heating Degree Days46.4 (Base 65)
Averaged from 30 records on January 24, 2013
WEATHER CONDITIONS BREAKOUT
WIND DIRECTION BREAKOUT
WEATHER BY HOUR - JANUARY 24, 2013
[ °C ]   °F
Local TimeTemperatureDewpointHumidityBarometerVisibilityWind DirectionWind SpeedGust SpeedPrecipitationEventsConditions
1:53 AM-17.0 °F-23.1 °F74 %30.68 in10.0 miCalmClear
2:53 AM-18.9 °F-25.1 °F74 %30.69 in10.0 miCalmClear
3:53 AM-20.0 °F-26.0 °F74 %30.70 in10.0 miCalmClear
4:53 AM-20.0 °F-27.0 °F70 %30.72 in10.0 miCalmClear
6:53 AM-18.9 °F-26.0 °F70 %30.74 in10.0 miCalmClear
7:53 AM-18.0 °F-24.0 °F74 %30.74 in10.0 miCalmClear
8:53 AM-15.0 °F-20.0 °F78 %30.72 in10.0 miCalmClear
9:53 AM-9.0 °F-14.1 °F79 %30.71 in10.0 miCalmClear
10:53 AM-2.0 °F-9.0 °F72 %30.69 in10.0 miCalmClear
11:47 AM57.2 °F46.4 °F67 %30.25 in10.0 miVariable4.6 mphOvercast
11:53 AM1.0 °F-8.0 °F66 %30.67 in10.0 miVariable3.5 mphClear
12:53 PM3.0 °F-8.0 °F60 %30.64 in10.0 miVariable4.6 mphClear
1:53 PM3.9 °F-9.0 °F55 %30.61 in10.0 miVariable4.6 mphScattered Clouds
2:53 PM5.0 °F-9.0 °F52 %30.59 in10.0 miSSE (150°)5.8 mphOvercast
3:53 PM5.0 °F-8.0 °F55 %30.55 in10.0 miSouth (170°)5.8 mphOvercast
4:53 PM5.0 °F-8.0 °F55 %30.51 in10.0 miSSE (160°)5.8 mphOvercast
5:53 PM5.0 °F-9.0 °F52 %30.49 in10.0 miSSE (160°)5.8 mphOvercast
6:53 PM5.0 °F-6.0 °F61 %30.46 in3.0 miSouth (170°)5.8 mph0.00 inSnowLight Snow
6:59 PM3.2 °F-5.8 °F66 %30.33 in2.5 miSSE (150°)6.9 mph0.00 inSnowLight Snow
7:13 PM3.2 °F-4.0 °F72 %30.32 in1.5 miSSE (150°)4.6 mph0.00 inSnowLight Snow
7:40 PM3.2 °F-2.2 °F78 %30.30 in2.0 miSE (140°)6.9 mph0.00 inSnowLight Snow
7:53 PM3.9 °F-2.0 °F76 %30.41 in1.5 miSE (130°)5.8 mph0.00 inSnowLight Snow
8:12 PM3.2 °F-2.2 °F78 %30.27 in1.0 miSE (140°)9.2 mph0.00 inSnowLight Snow
8:24 PM5.0 °F-0.4 °F78 %30.26 in1.2 miSE (140°)8.1 mph0.00 inSnowLight Snow
8:31 PM5.0 °F-2.2 °F72 %30.26 in2.5 miSSE (150°)8.1 mph0.00 inSnowLight Snow
8:39 PM5.0 °F-0.4 °F78 %30.26 in7.0 miSSE (150°)8.1 mph0.00 inSnowLight Snow
8:53 PM5.0 °F-2.0 °F73 %30.38 in10.0 miSSE (150°)9.2 mph0.00 inOvercast
9:53 PM6.1 °F-0.9 °F73 %30.33 in10.0 miSSE (150°)9.2 mphOvercast
10:53 PM7.0 °F0.0 °F73 %30.31 in10.0 miSSE (150°)11.5 mphOvercast
11:53 PM7.0 °F0.0 °F73 %30.26 in9.0 miSSE (160°)11.5 mph0.00 inSnowLight Snow
Hourly data recorded from KHYR, located miles away from Gordon, Wisconsin







STORIES FROM OUR PARTNERS